K9BM Weather Reports


Display with metric or nautical units.
time (UTC)temp
F
wind
direction
speed
MPH
gust
MPH
rain 1hr
in
rain 24hr
in
rain mn
in
humidity
%
barometer
mb
20260504190005 51 60 2.0 10.0 0.00 0.00 0.00 43 1009.6
20260504185505 52 58 5.0 12.0 0.00 0.00 0.00 43 1009.5
20260504185005 52 23 3.0 12.0 0.00 0.00 0.00 42 1009.4
20260504184505 52 57 4.0 13.0 0.00 0.00 0.00 41 1009.4
20260504183505 51 16 7.0 14.0 0.00 0.00 0.00 43 1009.5
20260504183005 51 33 7.0 14.0 0.00 0.00 0.00 44 1009.4
20260504182504 51 337 6.0 14.0 0.00 0.00 0.00 43 1009.4
20260504182005 52 1 9.0 20.0 0.00 0.00 0.00 44 1009.5
20260504181505 51 26 9.0 20.0 0.00 0.00 0.00 46 1009.5
20260504181005 50 332 5.0 12.0 0.00 0.00 0.00 45 1009.5
20260504180005 50 2 5.0 13.0 0.00 0.00 0.00 45 1009.6
20260504175505 51 352 7.0 12.0 0.00 0.00 0.00 46 1009.7
20260504174505 51 15 6.0 12.0 0.00 0.00 0.00 44 1009.7
20260504174004 51 42 5.0 12.0 0.00 0.00 0.00 44 1009.8
20260504173505 51 25 5.0 14.0 0.00 0.00 0.00 44 1009.8
20260504172505 51 54 7.0 12.0 0.00 0.00 0.00 45 1009.7
20260504171505 51 46 6.0 14.0 0.00 0.00 0.00 46 1009.7
20260504171005 50 37 9.0 14.0 0.00 0.00 0.00 46 1009.8
20260504151005 47 85 9.0 15.0 0.00 0.00 0.00 54 1010.0
20260504141005 46 101 7.0 10.0 0.00 0.00 0.00 54 1010.1
20260504082004 50 238 5.0 8.0 0.00 0.00 0.00 45 1003.9
20260504081504 49 220 5.0 9.0 0.00 0.00 0.00 46 1003.9
20260504050004 53 198 8.0 9.0 0.00 0.00 0.00 42 1004.3
20260504045505 53 232 4.0 12.0 0.00 0.00 0.00 40 1004.4
20260504043504 55 183 7.0 10.0 0.00 0.00 0.00 37 1004.3
20260504043005 55 166 9.0 10.0 0.00 0.00 0.00 36 1004.3
20260504042504 56 176 7.0 9.0 0.00 0.00 0.00 36 1004.3
20260504042005 55 175 7.0 9.0 0.00 0.00 0.00 36 1004.3
20260504041504 55 175 7.0 9.0 0.00 0.00 0.00 37 1004.2
20260504041004 55 168 8.0 9.0 0.00 0.00 0.00 37 1004.2
20260504040005 56 147 5.0 6.0 0.00 0.00 0.00 36 1004.1
20260504035504 57 107 1.0 6.0 0.00 0.00 0.00 35 1004.2
20260504035004 57 68 0.0 3.0 0.00 0.00 0.00 35 1004.2
20260504034504 57 66 0.0 10.0 0.00 0.00 0.00 35 1004.1
20260504034004 56 66 3.0 10.0 0.00 0.00 0.00 35 1004.0
20260504033505 57 87 4.0 10.0 0.00 0.00 0.00 36 1003.9
20260504033004 58 196 6.0 7.0 0.00 0.00 0.00 34 1003.7
20260504032504 59 199 6.0 7.0 0.00 0.00 0.00 33 1003.7
20260504032004 59 201 6.0 7.0 0.00 0.00 0.00 32 1003.6
20260504031504 60 201 4.0 6.0 0.00 0.00 0.00 31 1003.6
20260504025504 62 279 2.0 3.0 0.00 0.00 0.00 29 1003.5
20260504025005 62 281 2.0 3.0 0.00 0.00 0.00 28 1003.5
20260504024004 63 272 3.0 3.0 0.00 0.00 0.00 28 1003.4
20260504023005 63 274 0.0 7.0 0.00 0.00 0.00 29 1003.4
20260504022505 63 271 3.0 7.0 0.00 0.00 0.00 28 1003.3
20260504022004 64 267 6.0 8.0 0.00 0.00 0.00 27 1003.4
20260504021504 64 264 6.0 8.0 0.00 0.00 0.00 27 1003.3
20260504021004 65 266 6.0 9.0 0.00 0.00 0.00 27 1003.3
20260504015504 66 273 7.0 12.0 0.00 0.00 0.00 26 1003.4
20260504015005 66 280 7.0 12.0 0.00 0.00 0.00 25 1003.4
20260504014005 68 277 7.0 13.0 0.00 0.00 0.00 24 1003.5
20260504013504 68 266 9.0 13.0 0.00 0.00 0.00 23 1003.5
20260504013004 68 267 9.0 13.0 0.00 0.00 0.00 23 1003.5
20260504012004 69 257 10.0 13.0 0.00 0.00 0.00 22 1003.5
20260504011504 69 277 9.0 14.0 0.00 0.00 0.00 22 1003.6
20260504011004 69 290 9.0 14.0 0.00 0.00 0.00 23 1003.7
20260504010004 70 296 10.0 14.0 0.00 0.00 0.00 23 1003.8
20260504005504 69 281 7.0 14.0 0.00 0.00 0.00 23 1003.8
20260504005004 70 277 11.0 15.0 0.00 0.00 0.00 22 1003.9
20260504004504 70 281 9.0 15.0 0.00 0.00 0.00 23 1004.0
20260504004004 70 290 9.0 15.0 0.00 0.00 0.00 23 1004.0
20260504003504 70 285 12.0 15.0 0.00 0.00 0.00 22 1004.1
20260504003004 70 286 12.0 15.0 0.00 0.00 0.00 22 1004.1
20260504002504 70 264 9.0 15.0 0.00 0.00 0.00 23 1004.1
20260504001504 70 298 10.0 14.0 0.00 0.00 0.00 23 1004.2
20260504001004 70 279 9.0 17.0 0.00 0.00 0.00 22 1004.3
20260504000004 70 278 12.0 16.0 0.00 0.00 0.00 22 1004.4
20260503235504 71 277 12.0 17.0 0.00 0.00 0.00 22 1004.5
20260503235004 71 274 10.0 17.0 0.00 0.00 0.00 21 1004.6
20260503234504 71 305 12.0 17.0 0.00 0.00 0.00 21 1004.6
20260503234004 71 300 9.0 17.0 0.00 0.00 0.00 21 1004.7
20260503233506 70 320 10.0 18.0 0.00 0.00 0.00 22 1004.7
20260503233005 70 303 10.0 21.0 0.00 0.00 0.00 22 1004.8
20260503232505 70 295 12.0 21.0 0.00 0.00 0.00 23 1004.8
20260503232005 70 285 14.0 21.0 0.00 0.00 0.00 23 1004.8
20260503231505 71 274 11.0 17.0 0.00 0.00 0.00 22 1004.9
20260503231005 71 293 11.0 18.0 0.00 0.00 0.00 22 1005.0
20260503230006 71 282 14.0 20.0 0.00 0.00 0.00 21 1005.1
20260503225506 71 293 14.0 20.0 0.00 0.00 0.00 21 1005.1
20260503225005 71 276 12.0 20.0 0.00 0.00 0.00 20 1005.1
20260503224505 71 258 12.0 20.0 0.00 0.00 0.00 20 1005.2
20260503224005 71 272 13.0 20.0 0.00 0.00 0.00 20 1005.2
20260503223506 71 272 9.0 21.0 0.00 0.00 0.00 20 1005.3
20260503223005 71 276 11.0 21.0 0.00 0.00 0.00 20 1005.3
20260503222504 71 291 11.0 21.0 0.00 0.00 0.00 20 1005.3
20260503222005 71 296 11.0 20.0 0.00 0.00 0.00 19 1005.5
20260503221505 70 265 13.0 21.0 0.00 0.00 0.00 20 1005.5
20260503221006 70 258 13.0 21.0 0.00 0.00 0.00 20 1005.5
20260503220005 70 270 12.0 18.0 0.00 0.00 0.00 20 1005.7
20260503215505 70 275 13.0 18.0 0.00 0.00 0.00 20 1005.8
20260503214505 70 287 14.0 25.0 0.00 0.00 0.00 19 1005.9
20260503213005 70 253 14.0 24.0 0.00 0.00 0.00 22 1006.2
20260503212505 70 271 14.0 24.0 0.00 0.00 0.00 20 1006.3
20260503212005 70 287 12.0 24.0 0.00 0.00 0.00 21 1006.4
20260503211505 70 285 17.0 24.0 0.00 0.00 0.00 21 1006.4
20260503211005 70 243 10.0 22.0 0.00 0.00 0.00 22 1006.4
20260503210006 70 272 11.0 18.0 0.00 0.00 0.00 24 1006.5
20260503205505 70 287 12.0 20.0 0.00 0.00 0.00 24 1006.6
20260503205005 70 294 13.0 20.0 0.00 0.00 0.00 23 1006.7
20260503204505 70 288 13.0 20.0 0.00 0.00 0.00 25 1006.7
20260503204005 69 297 12.0 20.0 0.00 0.00 0.00 25 1006.8
20260503203005 69 275 12.0 20.0 0.00 0.00 0.00 24 1006.9
20260503202505 69 241 11.0 20.0 0.00 0.00 0.00 25 1007.0
20260503202005 70 279 14.0 20.0 0.00 0.00 0.00 25 1007.0
20260503201505 69 295 11.0 18.0 0.00 0.00 0.00 25 1007.1
20260503201005 69 299 13.0 20.0 0.00 0.00 0.00 25 1007.2
20260503195505 68 259 13.0 25.0 0.00 0.00 0.00 26 1007.4
20260503195005 68 291 14.0 25.0 0.00 0.00 0.00 26 1007.4
20260503194005 68 288 13.0 20.0 0.00 0.00 0.00 28 1007.6
20260503193504 68 276 10.0 20.0 0.00 0.00 0.00 29 1007.7
20260503193005 67 288 13.0 20.0 0.00 0.00 0.00 29 1007.8
20260503192504 68 305 8.0 20.0 0.00 0.00 0.00 29 1007.9
20260503192005 67 293 12.0 20.0 0.00 0.00 0.00 29 1008.0
20260503191505 67 283 13.0 20.0 0.00 0.00 0.00 30 1008.2